sat.trackr.live / text

‹ back to catalog

KUIPER-00110

NORAD 65148 · 2025-171S

PAYLOAD ACTIVE UNKNOWN

§ Identity

Operator
Country
US
Launch date
2025-08-11
Launch site
AFETR
Launch vehicle
Mass (kg)
RCS (m²)

External: N2YO · Heavens-Above · Gunter

§ Orbital elements

Epoch: 2026-05-25T03:27:35.341056Z

Period
97.30 min
Inclination
51.8977°
Eccentricity
0.0000814
Mean motion
14.79926268 rev/d
Perigee alt
629.0 km
Apogee alt
630.1 km
Semi-major
7,007.7 km
B*
-1.7942e-4
RAAN
190.0527°
Arg perigee
100.3794°
Mean anomaly
259.7260°
Rev number
4,406

§ Raw data

KUIPER-001101 65148U 25171S   26145.14415904 -.00001588  00000+0 -17942-3 0  99952 65148  51.8977 190.0527 0000814 100.3794 259.7260 14.79926268 44063

JSON: /api/v1/satellites/65148 · /tle

For live sub-satellite position, see the globe view (requires WebGL).

§ Visibility from observer

Set your observer location to see the next 7 days of passes ≥ 10°. The values pass through the URL so the page stays shareable.

No JS? Fill the form by hand. The geolocation button needs JavaScript.